Find Resurs-P No. 4

NORAD ID: 59371 Int'l Des: 2024-061 Owner: TSSKBP Country: RU operational
LEOCIRCULARRETROGRADESSO

Current View

Loading 3D Globe...

About Resurs-P No. 4

Description loading...

Upcoming Passes

Passes for default location (London). Set your location on the main map for personalized predictions.

Altitude History

Loading altitude history...

Two-Line Element Set

1 59371U 24061A 26150.17142267 .00003976 00000-0 13110-3 0 9996
2 59371 97.2745 98.3867 0000788 118.7755 241.3567 15.32015993121009
Epoch: May 30, 2026 • Age: 7 hours

Current Status

Altitude 482.3 km
Velocity 7.63 km/s
Sub-Earth Point 75.61°N, 20.22°E
Launch Date Mar 31, 2024
Age 2.1 years
Type other

Technical Details

Classification Payload
Mass 6000.00 kg
Dry Mass 5800.00 kg
Total Mass 6000.00 kg
Length 7.90 m
Diameter 2.70 m
Span 13.00 m
Shape Cy+2 pan
Manufacturer TSSKBP
Bus Type Resurs P
Phase Status In Orbit
Owner/State TSSKBP/RU

Most Searched